Weather Roundup
Issued by NWS

Home | Current Version | Previous Version | Text Only | Print | Product List | Glossary On
Versions: 1 2 3 4 5 6 7 8 9 10 11 12 13 14 15 16 17 18 19 20 21 22 23 24 25 26 27 28 29 30 31 32 33 34 35 36 37 38 39 40 41 42 43 44 45 46 47 48 49 50
000
NZUS93 KARX 212010
HRRWXR

CURRENT HOURLY OBSERVATIONS ACROSS
MUCH OF THE UPPER MISSISSIPPI VALLEY
NATIONAL WEATHER SERVICE LA CROSSE WI
200 PM CST SUN DEC 21 2014


...SOUTHEAST MINNESOTA...


CITY           SKY/WX    TMP DP  RH WIND       PRES   REMARKS
ROCHESTER      CLOUDY    36  34  92 S18G30    29.80F FOG     WCI  26
ROCHESTER/MAYO CLOUDY    36  35  96 SE15G28   29.80F WCI  27
WINONA         CLOUDY    37  36  93 S8G20     29.86F FOG     WCI  31
AUSTIN         CLOUDY    36  36 100 S16G22    29.79F FOG     WCI  26
ALBERT LEA     FOG       36  36 100 S16G23    29.75F VSB 3/4 WCI  26
DODGE CENTER   CLOUDY    36  36 100 S20       29.77F FOG     WCI  25
PRESTON        CLOUDY    35  34  96 S17G30    29.82F FOG     WCI  25
OWATONNA       CLOUDY    36  34  93 S14       29.76F FOG     WCI  27
FARIBAULT      CLOUDY    36  36 100 S13       29.76F FOG     WCI  27
$$

...ELSEWHERE IN MINNESOTA...


CITY           SKY/WX    TMP DP  RH WIND       PRES   REMARKS
MINNEAPOLIS    LGT RAIN  35  34  96 SE10      29.76F FOG     WCI  27
INTNL FALLS    CLOUDY    31  28  89 VRB7      29.70F WCI  24
DULUTH         CLOUDY    31  29  92 SE13      29.75F FOG     WCI  21
RED WING       RAIN      37  36  93 S9        29.80F WCI  31
REDWOOD FALLS  CLOUDY    35  34  96 SE8       29.68F FOG     WCI  29
MANKATO        CLOUDY    36  34  93 S10G16    29.73F WCI  28
WORTHINGTON    CLOUDY    37 -11  12 S16G22    29.65F VSB 1   WCI  28
FAIRMONT       CLOUDY    36  34  93 S14       29.70F VSB 1/2 WCI  27
$$

...SOUTHWEST WISCONSIN...


CITY           SKY/WX    TMP DP  RH WIND       PRES   REMARKS
LA CROSSE      CLOUDY    39  35  86 S17       29.88F FOG     WCI  30
PRAIRIE DU CHI CLOUDY    39  33  78 SE9G17    29.91F WCI  33
BOSCOBEL       CLOUDY    39  33  79 S10       29.94F WCI  32
LONE ROCK      CLOUDY    41  32  70 S8        29.96F
PLATTEVILLE    CLOUDY    37  34  89 S14       29.96F WCI  28
FORT MC COY    CLOUDY    37  35  92 S8        29.91F FOG     WCI  30
CAMP DOUGLAS   CLOUDY    36  36 100 SE13      29.91F FOG     WCI  27
VIROQUA        CLOUDY    36  36 100 S14G21    29.89F WCI  27
WIS DELLS      CLOUDY    35  32  89 S10       29.95F FOG     WCI  27
$$

...ELSEWHERE IN WISCONSIN...


CITY           SKY/WX    TMP DP  RH WIND       PRES   REMARKS
MILWAUKEE      CLOUDY    36  29  75 S10       30.07F WCI  28
MADISON        CLOUDY    36  32  85 S14       29.99F WCI  27
GREEN BAY      CLOUDY    35  32  88 S8        30.02F FOG     WCI  29
EAU CLAIRE     CLOUDY    34  33  96 S10       29.83F FOG     WCI  26
BLACK RVR FLS  CLOUDY    37  37 100 S6        29.88F FOG     WCI  32
MEDFORD        MIX PCPN  32  31  99 SE14      29.86F VSB 3/4 WCI  22
WAUSAU         LGT SNOW  33  31  92 S13       29.90F FOG     WCI  24
WIS RAPIDS     CLOUDY    35  31  85 S9        29.94F FOG     WCI  28
MARSHFIELD     LGT SNOW  33  32  96 S15       29.90F VSB 1   WCI  23
RICE LAKE      LGT SNOW  33  32  96 SE8       29.83F WCI  26
$$

...NORTHEAST IOWA...


CITY           SKY/WX    TMP DP  RH WIND       PRES   REMARKS
DECORAH        CLOUDY    37  36  93 S15G23    29.85F FOG     WCI  28
MASON CITY     CLOUDY    37  35  92 S17G26    29.80F FOG     WCI  27
CHARLES CITY   CLOUDY    37  37 100 S20       29.83S FOG     WCI  27
OELWEIN        CLOUDY    37  36  93 S17G24    29.87F FOG     WCI  28
$$

...ELSEWHERE IN IOWA...


CITY           SKY/WX    TMP DP  RH WIND       PRES   REMARKS
DES MOINES     CLOUDY    42  35  76 S21G26    29.84F
IOWA CITY      CLOUDY    40  36  86 S12       29.95F WCI  33
FORT DODGE     CLOUDY    37  34  87 S15G23    29.78F WCI  28
$$

...NORTHERN ILLINOIS...


CITY           SKY/WX    TMP DP  RH WIND       PRES   REMARKS
CHICAGO-OHARE  CLOUDY    36  28  73 S15       30.09F WCI  27
CHICAGO-MIDWAY CLOUDY    37  28  70 S14G22    30.11F WCI  28
MOLINE         CLOUDY    41  33  73 S12       29.99F
ROCKFORD       CLOUDY    37  31  78 S17       30.05F WCI  27
PEORIA         CLOUDY    40  31  70 S15       30.04F WCI  32
$$

NOTE: "FAIR" INDICATES FEW OR NO CLOUDS BELOW 12,000 FEET WITH NO
SIGNIFICANT WEATHER AND/OR OBSTRUCTIONS TO VISIBILITY. WIND
SPEEDS ARE IN MILES-PER-HOUR.



USA.gov is the U.S. government's official web portal to all federal, state and local government web resources and services.